Regional Weather Roundup
Issued by NWS

Home | Current Version | Previous Version | Text Only | Print | Product List | Glossary Off
Versions: 1 2 3 4 5 6 7 8 9 10 11 12 13 14 15 16 17 18 19 20 21 22 23 24 25 26 27 28 29 30 31 32 33 34 35 36 37 38 39 40 41 42 43 44 45 46 47 48 49 50

227
ASUS45 KCYS 030310
RWRWY

WYOMING REGIONAL WEATHER ROUNDUP
NATIONAL WEATHER SERVICE CHEYENNE WY
900 PM MDT MON MAY 02 2016

NOTE:  "FAIR" INDICATES FEW OR NO CLOUDS BELOW 12,000 FEET
WITH NO SIGNIFICANT WEATHER AND/OR OBSTRUCTIONS TO VISIBILITY.

WYZ001-030400-
YELLOWSTONE NATIONAL PARK

CITY           SKY/WX    TMP DP  RH WIND       PRES   REMARKS
LK YELLOWSTONE   N/A     37  25  61 VRB3      30.27R
W YELLOWSTONE  NOT AVBL

$$
WYZ002>013-054>058-071-098>099-030400-
NORTHERN WYOMING

CITY           SKY/WX    TMP DP  RH WIND       PRES   REMARKS
JACKSON        FAIR      52  21  30 W7        30.19R
CODY           FAIR      55  27  33 CALM      30.16S
GREYBULL       FAIR      63  29  27 NW17      30.08R
WORLAND        FAIR      50  33  52 S7        30.10R
SHERIDAN       FAIR      51  37  58 W12       30.13R
BUFFALO          N/A    N/A N/A N/A MISG      30.16R
GILLETTE       FAIR      43  35  73 W9        30.11S
HULETT         FAIR      54  36  50 CALM      30.09S
NEWCASTLE      FAIR      55  32  41 NW12G20   30.08R

$$
WYZ014>020-022>026-101>103-030400-
CENTRAL WYOMING

CITY           SKY/WX    TMP DP  RH WIND       PRES   REMARKS
BIG PINEY      FAIR      51  17  26 SW9       30.21R
PINEDALE       FAIR      46  14  27 W5        30.22R
DUBOIS         FAIR      46  18  31 S7        30.22R
LANDER         FAIR      48  26  42 W13       30.17R
RIVERTON       FAIR      53  31  42 NE5       30.18R
CASPER         FAIR      40  32  73 N7        30.16R
DOUGLAS        FAIR      48  33  56 N9        30.14R

$$
WYZ021-027>030-104>119-030400-
SOUTHERN WYOMING

CITY           SKY/WX    TMP DP  RH WIND       PRES   REMARKS
EVANSTON       FAIR      49  22  34 N8        30.23R
KEMMERER         N/A     45  14  29 W6        30.24R
FORT BRIDGER   CLEAR     46  18  31 S6        30.25S
ROCK SPRINGS   FAIR      46  15  28 SW7       30.22
DIXON          FAIR      40  26  59 CALM      30.22R
RAWLINS        FAIR      42  21  43 NW12      30.20R
SARATOGA       FAIR      43  18  36 CALM      30.21R
LARAMIE        FAIR      35  25  66 NW12      30.18R WCI  27
CHEYENNE       FAIR      46  26  45 NW9       30.14R
TORRINGTON     FAIR      51  33  50 NW12      30.06R
PINE BLUFFS    MOCLDY    46  32  57 NW13      30.09S

$$




USA.gov is the U.S. government's official web portal to all federal, state and local government web resources and services.